Lid_Strength_Index
2 4 7 9 13 14 16 13 12 11 10 8 6 8 9 8 10 12 2 1 1 0 -0 -0 -1 -1 -2 -2 -2 -2 -2 -2 -2 -2 -2 -2 -2 -2 -2 -2 -2 -2 -2 -2 -2 -2 -2 -2 -2
4 5 8 12 16 19 18 14 13 13 11 10 7 7 8 11 5 4 3 1 0 0 -0 -0 -1 -1 -1 -1 -1 -2 -2 -2 -1 -1 -1 -1 -2 -2 -2 -2 -2 -2 -2 -2 -2 -2 -2 -2 -2
6 7 10 14 17 19 18 13 12 11 11 7 8 6 8 8 4 5 4 1 0 1 0 -0 -1 -1 -1 -1 -1 -2 -2 -2 -1 -1 -1 -1 -1 -1 -2 -2 -2 -2 -2 -2 -2 -2 -2 -2 -2
7 10 12 15 16 15 13 11 11 10 8 6 7 9 5 6 6 5 4 3 1 0 0 0 -1 -1 -1 -1 -1 -2 -2 -2 -2 -1 -1 -1 -1 -1 -2 -1 -2 -2 -2 -2 -2 -1 -1 -2 -2
10 12 16 17 17 13 12 11 11 9 9 8 7 9 8 6 6 5 3 2 2 1 0 0 -0 -1 -1 -1 -2 -1 -2 -2 -2 -1 -1 -1 -1 -1 -2 -2 -2 -2 -2 -2 -2 -2 -1 -2 -2
11 13 17 18 15 12 12 11 11 9 8 8 8 8 7 5 7 6 2 2 1 0 -0 0 1 0 -1 -1 -1 -1 -1 -2 -2 -2 -1 -1 -1 -2 -2 -1 -2 -2 -2 -2 -1 -1 -1 -2 -2
12 15 18 18 15 13 12 11 11 10 9 8 6 9 7 7 7 6 3 2 2 3 3 -0 0 1 1 0 -0 -1 -1 -1 -2 -2 -2 -1 -1 -1 -1 -1 -2 -2 -1 -1 -1 -1 -1 -2 -2
12 13 16 16 15 14 11 11 11 9 9 5 6 9 8 6 6 4 4 3 3 2 2 3 2 2 0 1 1 0 -0 -1 -1 -1 -1 0 0 -0 -0 -0 -1 -2 -2 -2 -1 -1 -1 -2 -2
11 15 16 16 14 13 11 11 10 8 8 7 6 7 6 5 4 4 5 5 4 3 2 2 2 3 3 -0 1 2 1 0 0 0 1 1 1 0 0 1 -0 -1 -1 -2 -2 -1 -1 -2 -2
13 15 15 14 14 14 12 11 10 10 9 9 8 6 6 6 5 5 4 5 5 4 2 2 3 2 2 -0 0 0 -0 -0 -0 0 0 0 1 1 0 1 1 -0 -0 -1 -2 -1 0 1 1
14 16 14 13 12 13 12 11 9 10 11 9 9 8 7 6 6 6 5 6 5 4 3 3 3 2 3 1 1 0 -0 1 0 0 0 0 1 2 1 0 0 -0 1 -0 -0 1 2 3 2
14 13 13 12 11 11 12 10 10 9 11 8 8 7 8 7 7 7 7 6 6 6 5 5 3 2 3 2 1 1 1 0 1 1 0 1 1 2 1 0 0 0 0 1 1 2 2 3 3
14 14 12 12 11 12 10 11 11 11 10 8 7 8 9 8 7 7 6 6 6 7 6 5 5 3 2 2 1 0 1 1 0 1 0 1 1 2 1 1 0 0 -0 1 2 2 2 3 3
13 12 13 12 12 12 12 12 11 12 10 10 9 9 9 9 8 7 7 7 7 7 6 5 6 6 3 2 2 1 1 1 1 1 1 0 1 1 2 1 1 1 1 1 2 2 2 3 2
13 14 13 13 12 13 12 13 13 12 11 11 11 10 9 9 9 8 8 8 8 8 7 6 5 6 6 3 2 1 1 0 1 1 1 1 1 1 1 1 0 1 1 1 1 2 2 2 1
14 15 18 15 13 13 13 16 12 12 13 12 12 12 10 10 10 9 8 8 9 8 8 7 6 7 7 6 3 2 2 0 1 1 1 0 0 1 1 1 1 0 1 1 1 2 2 2 2
16 19 18 16 13 13 14 16 12 12 13 13 12 12 11 11 10 10 9 9 9 9 8 8 7 9 8 7 5 2 2 1 0 1 1 1 1 1 1 1 1 1 1 2 2 2 2 2 3
18 19 17 19 15 14 15 15 13 13 13 13 13 13 13 12 11 10 10 9 9 10 9 9 8 8 9 8 7 4 3 2 1 0 1 1 1 1 1 1 1 1 2 2 2 3 3 3 3
16 18 19 17 14 15 16 15 13 13 14 14 12 12 12 12 11 11 10 10 9 9 10 10 9 10 10 10 9 7 6 6 3 3 2 1 1 1 2 2 2 2 2 2 3 4 4 4 4
15 17 19 16 15 15 15 15 14 13 13 13 13 12 12 12 12 11 10 10 11 11 10 11 10 11 11 10 9 8 8 7 5 4 4 4 1 2 2 2 3 3 2 2 3 3 5 4 4
16 17 18 17 15 15 17 18 16 13 13 13 12 12 12 12 12 12 12 12 12 12 12 11 11 11 11 11 10 9 7 6 6 7 6 5 3 2 2 2 3 3 2 3 3 3 4 4 5
16 15 15 16 18 20 17 21 17 15 14 13 13 13 13 12 12 12 12 12 12 12 12 11 11 11 11 11 11 11 10 10 9 8 7 6 4 3 1 2 2 2 2 3 3 3 4 4 5
16 15 15 16 17 19 18 22 18 15 14 14 14 13 13 13 12 12 12 12 12 12 12 12 12 12 12 12 11 11 12 10 9 8 8 7 6 4 4 1 2 2 2 2 3 3 3 3 4
14 15 17 17 18 26 18 21 19 17 14 14 14 13 13 13 13 13 12 12 13 13 13 12 12 12 12 12 12 13 12 12 11 10 9 9 7 6 5 4 1 1 2 2 2 2 3 3 3
16 20 28 27 28 26 20 21 18 16 14 13 13 13 12 13 13 13 14 14 13 14 13 12 12 12 12 12 12 12 12 12 12 11 11 10 9 8 7 6 5 2 1 1 1 2 2 3 3
17 19 25 29 27 25 19 21 17 15 13 12 12 13 13 14 13 14 14 14 14 14 13 13 12 12 12 12 12 12 12 12 12 11 11 10 10 9 7 6 5 4 2 1 1 2 2 2 2
18 21 17 23 24 25 22 19 16 14 14 13 12 13 13 14 14 14 14 14 14 14 13 13 12 12 12 12 12 12 12 12 12 11 10 9 8 7 7 6 5 4 4 2 1 2 2 2 2
17 15 23 24 30 29 25 23 20 16 15 14 13 13 13 14 14 14 14 15 15 14 14 13 13 12 12 12 11 11 12 11 11 10 10 10 9 8 7 6 4 3 4 2 1 2 2 2 3
18 20 18 19 21 28 31 23 18 16 15 15 14 13 13 13 14 14 14 15 15 15 15 14 14 13 12 12 11 11 11 11 11 11 10 9 9 9 8 7 5 5 4 3 3 4 4 5 6
18 18 18 24 27 25 24 23 16 15 15 15 14 13 13 13 13 14 14 15 16 16 15 15 14 14 13 12 11 12 11 11 11 11 10 10 9 8 8 7 7 6 6 6 5 6 7 7 8